| time (UTC) | temp F | wind direction | speed MPH | gust MPH | rain 1hr in | rain 24hr in | rain mn in | humidity % | barometer mb |
| 20260502193603 | 65 | 4 | 3.0 | 8.0 | 0.00 | 0.00 | 0.00 | 31 | 1018.7 |
| 20260502192703 | 65 | 329 | 7.0 | 14.0 | 0.00 | 0.00 | 0.00 | 33 | 1018.9 |
| 20260502192013 | 64 | 299 | 7.0 | 12.0 | 0.00 | 0.00 | 0.00 | 32 | 1018.9 |
| 20260502190903 | 64 | 343 | 5.0 | 10.0 | 0.00 | 0.00 | 0.00 | 33 | 1018.9 |
| 20260502190003 | 64 | 324 | 7.0 | 15.0 | 0.00 | 0.00 | 0.00 | 32 | 1019.1 |
| 20260502185614 | 64 | 317 | 5.0 | 13.0 | 0.00 | 0.00 | 0.00 | 35 | 1019.2 |
| 20260502184717 | 64 | 331 | 6.0 | 12.0 | 0.00 | 0.00 | 0.00 | 33 | 1019.3 |
| 20260502183814 | 64 | 228 | 3.0 | 10.0 | 0.00 | 0.00 | 0.00 | 33 | 1019.5 |
| 20260502181804 | 63 | 123 | 4.0 | 9.0 | 0.00 | 0.00 | 0.00 | 34 | 1019.7 |
| 20260502181116 | 63 | 187 | 3.0 | 7.0 | 0.00 | 0.00 | 0.00 | 32 | 1019.9 |
| 20260502180213 | 63 | 255 | 5.0 | 12.0 | 0.00 | 0.00 | 0.00 | 36 | 1020.1 |
| 20260502170214 | 61 | 322 | 7.0 | 14.0 | 0.00 | 0.00 | 0.00 | 36 | 1020.8 |
| 20260502163815 | 60 | 312 | 6.0 | 14.0 | 0.00 | 0.00 | 0.00 | 36 | 1020.9 |
| 20260502162703 | 60 | 298 | 6.0 | 13.0 | 0.00 | 0.00 | 0.00 | 40 | 1020.9 |
| 20260502161803 | 59 | 302 | 7.0 | 14.0 | 0.00 | 0.00 | 0.00 | 39 | 1021.0 |
| 20260502160903 | 59 | 300 | 6.0 | 14.0 | 0.00 | 0.00 | 0.00 | 39 | 1021.0 |
| 20260502152015 | 57 | 320 | 2.0 | 9.0 | 0.00 | 0.00 | 0.00 | 40 | 1021.2 |
| 20260502150903 | 56 | 287 | 4.0 | 10.0 | 0.00 | 0.00 | 0.00 | 42 | 1021.3 |
| 20260502150215 | 56 | 304 | 2.0 | 7.0 | 0.00 | 0.00 | 0.00 | 42 | 1021.2 |
| 20260502123813 | 38 | 304 | 3.0 | 4.0 | 0.00 | 0.00 | 0.00 | 81 | 1021.0 |
| 20260502122916 | 36 | 304 | 2.0 | 3.0 | 0.00 | 0.00 | 0.00 | 81 | 1020.9 |
| 20260502122017 | 36 | 311 | 4.0 | 5.0 | 0.00 | 0.00 | 0.00 | 81 | 1020.8 |
| 20260502121115 | 35 | 323 | 4.0 | 4.0 | 0.00 | 0.00 | 0.00 | 80 | 1020.7 |
| 20260502115403 | 34 | 323 | 3.0 | 5.0 | 0.00 | 0.00 | 0.00 | 80 | 1020.5 |
| 20260502114716 | 34 | 323 | 3.0 | 4.0 | 0.00 | 0.00 | 0.00 | 80 | 1020.4 |
| 20260502113813 | 34 | 323 | 4.0 | 4.0 | 0.00 | 0.00 | 0.00 | 79 | 1020.4 |
| 20260502112916 | 34 | 323 | 3.0 | 4.0 | 0.00 | 0.00 | 0.00 | 80 | 1020.3 |
| 20260502112013 | 34 | 323 | 3.0 | 5.0 | 0.00 | 0.00 | 0.00 | 80 | 1020.2 |
| 20260502110903 | 34 | 324 | 4.0 | 5.0 | 0.00 | 0.00 | 0.00 | 79 | 1020.2 |
| 20260502110003 | 34 | 324 | 4.0 | 5.0 | 0.00 | 0.00 | 0.00 | 79 | 1020.2 |
| 20260502105614 | 34 | 325 | 3.0 | 5.0 | 0.00 | 0.00 | 0.00 | 78 | 1020.2 |
| 20260502104717 | 35 | 325 | 4.0 | 5.0 | 0.00 | 0.00 | 0.00 | 77 | 1020.2 |
| 20260502103814 | 36 | 24 | 3.0 | 5.0 | 0.00 | 0.00 | 0.00 | 77 | 1020.2 |
| 20260502102916 | 36 | 34 | 3.0 | 4.0 | 0.00 | 0.00 | 0.00 | 77 | 1020.2 |
| 20260502101803 | 36 | 34 | 3.0 | 4.0 | 0.00 | 0.00 | 0.00 | 77 | 1020.1 |
| 20260502100903 | 36 | 34 | 3.0 | 4.0 | 0.00 | 0.00 | 0.00 | 76 | 1020.0 |
| 20260502091117 | 37 | 35 | 0.0 | 3.0 | 0.00 | 0.00 | 0.00 | 73 | 1020.0 |
| 20260502090214 | 38 | 35 | 2.0 | 4.0 | 0.00 | 0.00 | 0.00 | 70 | 1019.9 |
| 20260502070903 | 43 | 35 | 1.0 | 3.0 | 0.00 | 0.00 | 0.00 | 61 | 1019.5 |
| 20260502070215 | 43 | 35 | 3.0 | 5.0 | 0.00 | 0.00 | 0.00 | 59 | 1019.5 |
| 20260502065617 | 43 | 35 | 5.0 | 5.0 | 0.00 | 0.00 | 0.00 | 60 | 1019.5 |
| 20260502064503 | 43 | 36 | 4.0 | 5.0 | 0.00 | 0.00 | 0.00 | 60 | 1019.5 |
| 20260502063816 | 44 | 36 | 3.0 | 4.0 | 0.00 | 0.00 | 0.00 | 60 | 1019.5 |
| 20260502062703 | 45 | 36 | 4.0 | 5.0 | 0.00 | 0.00 | 0.00 | 58 | 1019.3 |
| 20260502061803 | 45 | 36 | 2.0 | 4.0 | 0.00 | 0.00 | 0.00 | 58 | 1019.3 |
| 20260502060903 | 45 | 36 | 2.0 | 4.0 | 0.00 | 0.00 | 0.00 | 58 | 1019.3 |
| 20260502060216 | 45 | 36 | 3.0 | 4.0 | 0.00 | 0.00 | 0.00 | 58 | 1019.4 |
| 20260502055617 | 44 | 36 | 3.0 | 4.0 | 0.00 | 0.00 | 0.00 | 59 | 1019.3 |
| 20260502054715 | 44 | 36 | 5.0 | 8.0 | 0.00 | 0.00 | 0.00 | 60 | 1019.3 |
| 20260502053817 | 45 | 33 | 7.0 | 10.0 | 0.00 | 0.00 | 0.00 | 59 | 1019.2 |
| 20260502052704 | 46 | 34 | 8.0 | 10.0 | 0.00 | 0.00 | 0.00 | 57 | 1019.1 |
| 20260502052017 | 46 | 34 | 9.0 | 10.0 | 0.00 | 0.00 | 0.00 | 57 | 1019.0 |
| 20260502050903 | 46 | 32 | 9.0 | 10.0 | 0.00 | 0.00 | 0.00 | 59 | 1018.9 |
| 20260502050216 | 46 | 31 | 9.0 | 10.0 | 0.00 | 0.00 | 0.00 | 59 | 1018.9 |
| 20260502045403 | 46 | 30 | 9.0 | 11.0 | 0.00 | 0.00 | 0.00 | 59 | 1018.9 |
| 20260502044715 | 46 | 30 | 9.0 | 11.0 | 0.00 | 0.00 | 0.00 | 59 | 1018.9 |
| 20260502043603 | 48 | 35 | 9.0 | 12.0 | 0.00 | 0.00 | 0.00 | 55 | 1018.8 |
| 20260502042915 | 48 | 34 | 9.0 | 12.0 | 0.00 | 0.00 | 0.00 | 55 | 1018.8 |
| 20260502041803 | 48 | 37 | 7.0 | 10.0 | 0.00 | 0.00 | 0.00 | 55 | 1018.6 |
| 20260502041115 | 48 | 37 | 8.0 | 10.0 | 0.00 | 0.00 | 0.00 | 55 | 1018.6 |
| 20260502040003 | 48 | 32 | 9.0 | 11.0 | 0.00 | 0.00 | 0.00 | 56 | 1018.6 |
| 20260502035403 | 48 | 31 | 9.0 | 11.0 | 0.00 | 0.00 | 0.00 | 56 | 1018.6 |
| 20260502034716 | 49 | 33 | 8.0 | 11.0 | 0.00 | 0.00 | 0.00 | 54 | 1018.5 |
| 20260502033813 | 50 | 32 | 10.0 | 12.0 | 0.00 | 0.00 | 0.00 | 54 | 1018.4 |
| 20260502032916 | 50 | 31 | 11.0 | 14.0 | 0.00 | 0.00 | 0.00 | 53 | 1018.3 |
| 20260502032013 | 51 | 33 | 11.0 | 14.0 | 0.00 | 0.00 | 0.00 | 52 | 1018.2 |
| 20260502031115 | 51 | 29 | 12.0 | 15.0 | 0.00 | 0.00 | 0.00 | 52 | 1018.0 |
| 20260502030003 | 51 | 25 | 12.0 | 14.0 | 0.00 | 0.00 | 0.00 | 53 | 1017.8 |
| 20260502025614 | 51 | 24 | 11.0 | 13.0 | 0.00 | 0.00 | 0.00 | 53 | 1017.8 |
| 20260502024717 | 52 | 18 | 12.0 | 15.0 | 0.00 | 0.00 | 0.00 | 51 | 1017.7 |
| 20260502023814 | 53 | 16 | 13.0 | 18.0 | 0.00 | 0.00 | 0.00 | 49 | 1017.6 |
| 20260502022703 | 53 | 15 | 14.0 | 18.0 | 0.00 | 0.00 | 0.00 | 50 | 1017.4 |
| 20260502022014 | 51 | 14 | 11.0 | 17.0 | 0.00 | 0.00 | 0.00 | 55 | 1017.3 |
| 20260502020903 | 51 | 13 | 10.0 | 12.0 | 0.00 | 0.00 | 0.00 | 56 | 1017.0 |
| 20260502020003 | 52 | 10 | 10.0 | 11.0 | 0.00 | 0.00 | 0.00 | 55 | 1016.9 |
| 20260502015403 | 53 | 12 | 10.0 | 12.0 | 0.00 | 0.00 | 0.00 | 53 | 1016.7 |
| 20260502014503 | 53 | 20 | 10.0 | 12.0 | 0.00 | 0.00 | 0.00 | 52 | 1016.5 |
| 20260502013815 | 54 | 12 | 9.0 | 11.0 | 0.00 | 0.00 | 0.00 | 51 | 1016.5 |
| 20260502012703 | 55 | 8 | 10.0 | 12.0 | 0.00 | 0.00 | 0.00 | 49 | 1016.4 |
| 20260502011803 | 57 | 9 | 10.0 | 13.0 | 0.00 | 0.00 | 0.00 | 47 | 1016.3 |
| 20260502011117 | 58 | 13 | 10.0 | 13.0 | 0.00 | 0.00 | 0.00 | 45 | 1016.2 |
| 20260502010214 | 60 | 8 | 10.0 | 13.0 | 0.00 | 0.00 | 0.00 | 43 | 1016.1 |
| 20260502005404 | 60 | 7 | 10.0 | 13.0 | 0.00 | 0.00 | 0.00 | 42 | 1015.9 |
| 20260502004718 | 61 | 9 | 12.0 | 16.0 | 0.00 | 0.00 | 0.00 | 41 | 1015.8 |
| 20260502003815 | 62 | 16 | 12.0 | 16.0 | 0.00 | 0.00 | 0.00 | 40 | 1015.6 |
| 20260502002703 | 62 | 330 | 13.0 | 18.0 | 0.00 | 0.00 | 0.00 | 38 | 1015.6 |
| 20260502002015 | 63 | 335 | 14.0 | 20.0 | 0.00 | 0.00 | 0.00 | 37 | 1015.6 |
| 20260502000903 | 63 | 335 | 12.0 | 15.0 | 0.00 | 0.00 | 0.00 | 39 | 1015.7 |
| 20260502000220 | 63 | 329 | 12.0 | 15.0 | 0.00 | 0.00 | 0.00 | 38 | 1015.8 |
| 20260501235403 | 63 | 322 | 11.0 | 16.0 | 0.00 | 0.00 | 0.00 | 39 | 1015.8 |
| 20260501234503 | 63 | 328 | 10.0 | 13.0 | 0.00 | 0.00 | 0.00 | 39 | 1015.7 |
| 20260501233603 | 63 | 312 | 10.0 | 14.0 | 0.00 | 0.00 | 0.00 | 40 | 1015.6 |
| 20260501232703 | 65 | 331 | 13.0 | 20.0 | 0.00 | 0.00 | 0.00 | 37 | 1015.5 |
| 20260501232015 | 65 | 337 | 14.0 | 22.0 | 0.00 | 0.00 | 0.00 | 35 | 1015.6 |
| 20260501230903 | 66 | 358 | 14.0 | 19.0 | 0.00 | 0.00 | 0.00 | 35 | 1015.4 |
| 20260501230003 | 66 | 345 | 15.0 | 21.0 | 0.00 | 0.00 | 0.00 | 35 | 1015.4 |
| 20260501225403 | 65 | 315 | 11.0 | 18.0 | 0.00 | 0.00 | 0.00 | 37 | 1015.3 |
| 20260501224714 | 64 | 315 | 11.0 | 18.0 | 0.00 | 0.00 | 0.00 | 37 | 1015.4 |
| 20260501223816 | 64 | 317 | 15.0 | 23.0 | 0.00 | 0.00 | 0.00 | 35 | 1015.5 |
| 20260501222914 | 66 | 327 | 16.0 | 27.0 | 0.00 | 0.00 | 0.00 | 36 | 1015.4 |
| 20260501221803 | 66 | 348 | 13.0 | 21.0 | 0.00 | 0.00 | 0.00 | 36 | 1015.4 |
| 20260501221113 | 65 | 342 | 15.0 | 22.0 | 0.00 | 0.00 | 0.00 | 37 | 1015.4 |
| 20260501220216 | 66 | 329 | 13.0 | 21.0 | 0.00 | 0.00 | 0.00 | 36 | 1015.4 |
| 20260501215403 | 66 | 343 | 13.0 | 20.0 | 0.00 | 0.00 | 0.00 | 35 | 1015.4 |
| 20260501214503 | 67 | 327 | 11.0 | 22.0 | 0.00 | 0.00 | 0.00 | 37 | 1015.5 |
| 20260501213817 | 66 | 303 | 13.0 | 20.0 | 0.00 | 0.00 | 0.00 | 36 | 1015.7 |
| 20260501212703 | 66 | 284 | 12.0 | 21.0 | 0.00 | 0.00 | 0.00 | 36 | 1015.8 |
| 20260501211803 | 67 | 336 | 13.0 | 22.0 | 0.00 | 0.00 | 0.00 | 34 | 1015.8 |
| 20260501211114 | 65 | 356 | 8.0 | 16.0 | 0.00 | 0.00 | 0.00 | 37 | 1016.0 |
| 20260501210003 | 65 | 358 | 13.0 | 18.0 | 0.00 | 0.00 | 0.00 | 38 | 1016.2 |
| 20260501205403 | 65 | 346 | 10.0 | 18.0 | 0.00 | 0.00 | 0.00 | 41 | 1016.2 |
| 20260501204503 | 66 | 304 | 10.0 | 18.0 | 0.00 | 0.00 | 0.00 | 38 | 1016.3 |
| 20260501203603 | 66 | 319 | 12.0 | 18.0 | 0.00 | 0.00 | 0.00 | 39 | 1016.3 |
| 20260501202915 | 65 | 333 | 12.0 | 20.0 | 0.00 | 0.00 | 0.00 | 39 | 1016.4 |
| 20260501201803 | 65 | 308 | 11.0 | 20.0 | 0.00 | 0.00 | 0.00 | 38 | 1016.4 |
| 20260501200903 | 66 | 321 | 9.0 | 16.0 | 0.00 | 0.00 | 0.00 | 38 | 1016.5 |
| 20260501200217 | 66 | 309 | 10.0 | 16.0 | 0.00 | 0.00 | 0.00 | 38 | 1016.5 |
| 20260501195614 | 66 | 308 | 11.0 | 18.0 | 0.00 | 0.00 | 0.00 | 40 | 1016.5 |
| 20260501194716 | 66 | 310 | 10.0 | 17.0 | 0.00 | 0.00 | 0.00 | 41 | 1016.6 |